Regional Weather Roundup
Issued by NWS Goodland, KS

Home | Current Version | Previous Version | Text Only | Print | Product List | Glossary On
Versions: 1 2 3 4 5 6 7 8 9 10 11 12 13 14 15 16 17 18 19 20 21 22 23 24 25 26 27 28 29 30 31 32 33 34 35 36 37 38 39 40 41 42 43 44 45 46 47 48 49 50
000
ASUS43 KGLD 241459
RWRGLD

GOODLAND FORECAST AREA HOURLY WEATHER ROUNDUP
NATIONAL WEATHER SERVICE GOODLAND KS
900 AM MDT FRI MAR 24 2017

...OFFICIAL OBSERVATIONS...

CITY           SKY/WX    TMP DP  RH WIND       PRES   REMARKS
GOODLAND KS    RAIN      41  40  96 N32G48    29.77R FOG
HILL CITY KS   PTSUNNY   53  52  96 NE24G33   29.76R
IMPERIAL NEB   CLOUDY    42  39  89 NE30G38   29.89R
MCCOOK NEB     CLOUDY    43  40  89 N30G46    29.81R
AKRON CO       FLURRIES  38  35  89 N32G44    29.94R
BURLINGTON CO  LGT RAIN  40  38  93 N37G46    29.81R FOG
LIMON CO       FOG       32  32 100 N33G46    29.89R VSB 1/2 WCI  17
$$

...UNOFFICIAL OBSERVATIONS...

CITY           SKY/WX    TMP DP  RH WIND       PRES   REMARKS
LENORA KS        N/A     45  32  60 N15         N/A
NORTON KS      CLOUDY    45  39  81 N21G30    29.80R
SHARON SPRINGS   N/A     49  42  76 NW10        N/A
TRENTON NEB      N/A     42  32  68 N22         N/A
KIT CARSON CO    N/A     38  35  88 MISG        N/A
YUMA CO        LGT RAIN  37  36  93 N35G43    29.89R
$$




USA.gov is the U.S. government's official web portal to all federal, state and local government web resources and services.